Location: ActonStarParty
(42.4766°N, 71.4538°W)
Time: 04:19:14
(UTC-04:00)

Daily predictions for brighter satellites

Satellite Brightness Start Highest point End
(mag) Time Altitude Azimuth Time Altitude Azimuth Time Altitude Azimuth
ATLAS 2AS CENTAUR R/B 4.3 02:11:19 35° NNE 02:11:19 35° NNE 02:15:47 10° NNE
SL-16 R/B 4.4 02:24:59 24° NNE 02:24:59 24° NNE 02:28:02 10° N
CZ-2D R/B 4.1 03:01:05 10° NNE 03:03:25 25° NE 03:03:25 25° NE
SL-16 R/B 4.2 03:08:12 10° N 03:12:54 26° NE 03:17:33 10° ESE
NOSS 3-2 (C) 4.5 03:16:15 52° ESE 03:16:15 52° ESE 03:22:17 10° SE
Resurs 1-4 Rocket 3.7 03:16:30 10° NNE 03:19:16 31° NNE 03:19:16 31° NNE
Cosmos 2227 Rocket 3.3 03:25:42 40° NE 03:25:42 40° NE 03:29:31 10° NNE
Cosmos 2297 Rocket 3.2 03:33:43 43° E 03:33:43 43° E 03:38:13 10° NE
Cosmos 2344 3.6 03:37:36 74° NW 03:37:36 74° NW 03:46:28 10° NE
Cosmos 1727 Rocket 4.4 03:37:25 57° ESE 03:37:41 57° E 03:43:51 10° NNE
NOSS 3-4 (A) 3.8 03:39:28 66° NE 03:39:28 66° NE 03:45:01 10° NE
NOSS 3-4 (C) 3.8 03:39:33 66° NE 03:39:33 66° NE 03:45:08 10° NE
ARIANE 5 R/B 4.2 03:42:00 10° N 03:44:13 26° N 03:44:13 26° N
ATLAS 2AS CENTAUR R/B 4.4 03:58:46 22° NW 04:00:28 23° NNW 04:06:41 10° NNE
SL-16 R/B 4.1 04:10:06 20° NW 04:10:06 20° NW 04:12:01 10° NNW
RESURS DK-1 4.0 04:08:10 29° NNE 04:08:10 29° NNE 04:10:16 10° NNE
Cosmos 2082 3.9 04:07:17 62° N 04:07:17 62° N 04:12:06 10° NNE
Cosmos 1605 Rocket 4.4 04:00:58 10° NNW 04:05:26 48° NNW 04:05:26 48° NNW
Cosmos 1153 Rocket 4.5 04:00:43 10° N 04:07:06 85° E 04:10:13 33° S
Cosmos 1339 Rocket 4.4 04:11:48 59° S 04:13:08 90° S 04:19:36 10° N
ADEOS II 4.2 04:09:12 10° NE 04:13:29 25° E 04:17:45 10° SSE
MOZ.5/SAFIR/RUBIN 5/SL-8 4.5 04:15:45 46° N 04:15:45 46° N 04:19:08 10° N
BREEZE-M DEB (TANK) 4.2 04:19:05 22° NE 04:19:05 22° NE 04:20:39 10° E
Lacrosse 5 2.5 04:24:09 44° NNW 04:24:09 44° NNW 04:28:39 10° NE
Okean O Rocket 1.5 04:24:14 10° NNE 04:28:30 82° NE 04:28:30 82° NE
Cosmos 1726 Rocket 3.8 04:24:28 10° N 04:28:05 60° N 04:28:05 60° N
ATLAS 5 CENTAUR R/B 3.9 04:33:20 21° S 04:33:20 21° S 04:35:37 10° S
Meteor 1-15 Rocket 4.4 04:24:38 10° N 04:30:13 70° ENE 04:35:50 10° SSE
Cosmos 2298 Rocket 4.1 04:30:00 46° S 04:31:36 76° ESE 04:36:56 10° NNE
Cosmos 724 4.3 04:30:23 10° NW 04:36:36 74° WSW 04:42:47 10° SSE
CZ-4B R/B 3.2 04:31:10 10° NNE 04:36:37 78° ESE 04:40:07 23° S
Lacrosse 5 rocket 3.8 04:41:17 13° NNW 04:42:17 14° NNW 04:44:39 10° NNE
Cosmos 1892 Rocket 3.4 04:43:24 67° SW 04:43:52 76° W 04:48:22 10° N
USA 215 3.6 04:38:18 10° SSE 04:44:25 41° SW 04:45:10 40° WSW
PSLV R/B 4.4 04:40:39 10° NNE 04:44:52 49° E 04:49:00 10° S
Cosmos 2150 Rocket 3.9 04:42:56 37° SSW 04:45:00 87° ESE 04:50:11 10° NNE
Thor Agena Rocket 3.8 04:40:21 10° SSE 04:45:37 74° ENE 04:50:55 10° N
ADEOS Rocket 3.4 04:38:46 10° NNE 04:45:52 74° ESE 04:52:11 10° S
CZ-2D R/B 3.5 04:41:42 10° N 04:44:44 23° NW 04:44:44 23° NW
Meteor 1-19 Rocket 4.4 04:46:45 46° W 04:47:18 48° WNW 04:52:43 10° N
Cosmos 2100 Rocket 3.9 04:41:44 10° N 04:47:58 75° W 04:54:15 10° S
Cosmos 2228 3.1 04:46:00 10° N 04:50:26 78° E 04:54:47 10° SSE
Meteor 2-4 Rocket 3.8 04:48:10 35° SW 04:50:36 63° WNW 04:56:31 10° N
BREEZE-M DEB (TANK) 2.7 04:50:16 65° W 04:50:45 81° NNW 04:53:19 10° ENE
OPS 6432 4.4 04:51:06 70° ESE 04:51:06 70° ESE 04:54:05 10° NE
Cosmos 1802 Rocket 3.9 04:45:44 10° N 04:51:55 87° W 04:58:03 10° S
CENTAUR R/B 3.1 04:45:02 10° NW 04:52:54 87° NE 05:01:16 10° SE
Cosmos 2061 Rocket 3.9 04:47:31 10° N 04:53:51 76° W 05:00:13 10° S
IRS-1C Rocket 4.2 04:51:13 10° N 04:56:23 56° WNW 04:58:23 35° SW
SL-16 R/B 2.2 04:51:48 10° NNW 04:57:20 53° WSW 05:02:48 10° S
Meteor 2-9 Rocket 4.3 04:54:31 10° NNW 05:00:04 56° W 05:05:42 10° S
CZ-4B R/B 3.1 04:55:52 10° N 05:00:15 60° WNW 05:01:53 36° SW
Resurs 1-4 Rocket 3.7 04:57:30 10° NNW 05:00:20 18° NW 05:00:20 18° NW
NOSS 2-2 (D) 3.9 05:00:15 25° SSW 05:02:29 62° ESE 05:07:08 10° NE
Meteor 1-23 Rocket 4.3 04:59:59 29° SW 05:02:42 54° WNW 05:08:18 10° N
Cosmos 1898 Rocket 3.6 05:04:52 30° SW 05:07:18 56° WNW 05:12:31 10° NNE
Cosmos 2227 Rocket 3.3 05:07:34 24° WNW 05:08:23 24° NW 05:12:59 10° N
Cosmos 2098 Rocket 3.1 05:08:14 10° N 05:12:21 77° W 05:17:37 10° S
Okean 2 4.0 05:13:04 35° W 05:13:21 35° WNW 05:17:11 10° N
Cosmos 1937 Rocket 3.5 05:12:42 19° SSW 05:16:30 65° WNW 05:21:46 10° NNE
Cosmos 2297 Rocket 3.2 05:15:34 25° W 05:17:05 28° NW 05:21:54 10° N
NOSS 2-2 (C) 3.5 05:15:14 22° SSW 05:17:51 88° SE 05:22:39 10° NE
DELTA 2 R/B (1) 3.7 05:15:21 28° WSW 05:18:18 66° S 05:23:50 10° E
NOSS 2-2 (E) 3.5 05:16:26 24° SW 05:18:56 82° NW 05:23:52 10° NE
Cosmos 2016 Rocket 4.0 05:13:03 10° NNW 05:19:19 65° W 05:25:28 10° S
Tiangong 1 0.8 05:22:33 42° W 05:23:26 86° S 05:26:27 10° E
Cosmos 2173 Rocket 4.3 05:18:35 10° NNW 05:24:15 42° W 05:29:58 10° SSW
EXPRESS MD2 3.5 05:24:16 28° WNW 05:25:58 59° SSW 05:32:02 10° SE
Cosmos 2058 Rocket 3.8 05:23:47 10° NNW 05:27:32 29° W 05:31:17 10° SSW
Cosmos 1459 Rocket 4.4 05:23:03 10° NNW 05:28:53 39° W 05:34:37 10° SSW
SL-08 R/B 4.5 05:22:48 10° NNW 05:29:00 65° W 05:35:15 10° S
Cosmos 967 Rocket 4.5 05:24:50 12° SW 05:30:50 71° NW 05:37:16 10° NNE
USA 116 4.2 05:28:13 10° S 05:33:09 59° WSW 05:37:36 10° NNW
Cosmos 1346 Rocket 4.4 05:33:38 17° WNW 05:33:38 17° WNW 05:36:13 10° NNW
AVUM R/B 4.3 05:31:21 10° N 05:33:35 32° ENE 05:35:40 10° SE
FALCON 9 R/B 4.4 05:28:31 12° SW 05:35:10 51° SSE 06:01:42 10° E
Okean-O 2.7 05:33:08 10° N 05:37:30 56° WNW 05:41:50 10° SSW
Cosmos 1943 3.9 05:32:43 10° NNW 05:38:16 58° ENE 05:43:49 10° SE
COSMO-SKYMED 1 3.6 05:34:41 10° SSE 05:38:52 49° ENE 05:43:03 10° N
Cosmos 2123 Rocket 3.9 05:33:49 10° SSW 05:39:56 66° W 05:46:06 10° N
Cosmos 1603 3.8 05:39:29 10° NNW 05:45:06 57° WSW 05:50:38 10° S
Cosmos 2263 Rocket 3.4 05:44:32 10° S 05:49:46 44° ESE 05:55:02 10° NE
SL-24 R/B 4.2 05:48:18 10° NNE 05:52:31 71° E 05:56:18 10° S
ADEOS II 2.5 05:48:25 10° N 05:53:22 42° WNW 05:58:17 10° SW
Cosmos 1626 Rocket 4.1 05:49:45 10° SW 05:53:47 36° WNW 05:57:50 10° N
MOS 1 Rocket 3.5 05:51:26 10° N 05:56:13 59° WNW 06:01:17 10° SSW
Genesis I 3.7 05:54:19 10° WSW 05:58:07 42° NW 06:01:56 10° NNE
BREEZE-M DEB (TANK) 3.5 05:51:01 10° WNW 06:02:10 56° SW 06:05:38 10° SE
Cosmos 1766 3.6 05:58:40 10° N 06:02:42 72° E 06:06:40 10° SSE
SeaSat 1 3.9 05:59:44 10° SE 06:04:19 40° NE 06:08:56 10° NNW
Okean O Rocket 3.6 06:03:32 10° NW 06:04:20 10° WNW 06:05:08 10° WNW
Meteor 1-31 Rocket 3.2 06:03:11 10° N 06:06:53 41° WNW 06:10:35 10° SW
Lacrosse 5 3.7 06:04:25 10° WNW 06:07:52 18° NNW 06:11:19 10° NNE
COBE Rocket 4.1 06:03:26 10° N 06:07:57 44° WNW 06:12:21 10° SW
Cosmos 1953 Rocket 3.7 06:08:35 10° S 06:13:03 83° E 06:17:33 10° N
Cosmos 1464 Rocket 4.5 06:08:50 10° N 06:14:58 67° E 06:21:04 10° SSE
